Temperature
22 21 21 20 20 20 20 19 19 19 19 19 19 19 18 18 18 18 18 17 17 17 17 17 17 17 17 16 16 16 16 16 16 16 16 16 16 16 16 16 16 16 16
22 21 21 20 20 20 20 20 19 19 19 19 19 18 18 18 18 18 17 17 17 17 17 17 17 16 16 16 16 16 16 16 15 15 15 16 16 16 16 15 15 15 15
22 22 21 21 20 20 20 20 19 19 19 19 19 18 18 18 18 17 17 17 17 17 17 16 16 16 16 16 16 16 15 15 15 15 15 15 15 15 15 15 15 15 15
22 22 22 21 21 20 20 20 19 19 19 19 18 18 18 18 18 17 17 17 17 17 16 16 16 16 16 16 16 15 15 15 15 15 15 15 15 15 15 15 15 15 14
22 22 22 21 21 20 20 20 19 19 19 19 18 18 18 18 17 17 17 17 17 17 16 16 16 16 16 15 15 15 15 15 15 15 14 14 14 14 14 14 14 14 14
22 22 21 21 20 20 20 19 19 19 19 18 18 18 18 17 17 17 17 17 16 16 16 16 16 15 15 15 15 15 15 14 14 14 14 14 14 14 14 14 13 13 13
22 22 21 21 20 20 19 19 19 19 19 18 18 18 17 17 17 17 16 16 16 16 16 15 15 15 15 15 15 14 14 14 14 14 14 14 14 14 13 13 13 13 13
22 21 21 20 20 20 19 19 19 19 18 18 17 17 17 17 17 16 16 16 16 15 15 15 15 15 15 14 14 14 14 14 14 13 13 13 13 13 13 13 13 12 12
21 21 21 20 20 20 19 19 18 18 18 17 17 17 16 16 16 16 16 16 16 15 15 15 14 14 14 14 14 14 14 13 13 13 13 13 13 13 13 12 12 12 12
21 21 20 20 20 19 19 18 18 18 18 17 16 16 16 16 16 16 15 15 15 15 15 14 14 14 14 14 13 13 13 13 13 13 13 13 12 12 12 12 12 12 11
21 20 20 19 19 19 18 18 18 17 17 16 16 16 16 16 15 15 15 15 15 14 14 14 14 13 13 13 13 13 13 12 12 12 12 12 12 12 12 12 11 11 11
20 20 19 19 18 18 18 17 17 17 16 16 16 15 15 15 15 15 14 14 14 14 14 13 13 13 13 12 12 12 12 12 12 12 12 12 12 11 11 11 11 11 11
19 18 18 18 18 18 17 17 17 16 16 15 15 15 15 15 14 14 14 14 13 13 13 13 12 12 12 12 12 12 12 12 11 11 11 11 11 11 11 11 11 10 10
18 18 18 17 17 17 16 16 16 15 15 15 15 15 14 14 14 14 14 13 13 13 12 12 12 12 12 12 11 11 11 11 11 11 11 11 11 10 10 10 10 10 10
18 17 17 17 16 16 16 15 15 15 15 15 14 14 14 14 14 13 13 13 12 12 12 12 11 11 11 11 11 11 11 10 10 10 10 10 10 10 10 10 9 9 9
17 17 16 16 16 15 15 15 15 14 14 14 14 14 13 13 13 13 12 12 12 12 11 11 11 11 11 10 10 10 10 10 10 10 9 9 9 9 9 9 9 9 9
16 16 16 15 15 15 15 14 14 14 14 14 13 13 13 13 12 12 11 11 11 11 11 10 10 10 10 10 10 9 9 9 9 9 9 9 9 9 9 9 8 8 8
15 15 15 15 15 15 14 14 14 14 13 13 13 12 12 12 12 11 11 11 11 10 10 10 10 9 9 9 9 9 9 9 9 9 9 9 9 8 8 8 8 8 8
15 15 15 15 14 14 14 14 13 13 12 12 12 12 11 11 11 11 10 10 10 10 9 9 9 9 9 9 8 8 8 8 8 8 8 8 8 8 8 8 8 8 8
14 14 14 14 14 14 13 13 13 12 12 12 11 11 11 11 10 10 10 10 9 9 9 9 8 8 8 8 8 8 8 8 8 8 8 8 8 7 7 7 7 7 7
14 14 14 13 13 13 13 13 12 12 12 11 11 11 10 10 10 10 9 9 9 9 8 8 8 8 8 8 8 7 7 7 7 7 7 7 7 7 7 7 7 7 7
13 13 13 13 13 13 12 12 12 11 11 11 10 10 10 9 9 9 9 9 8 8 8 8 8 7 7 7 7 7 7 7 7 7 7 6 6 6 6 6 6 6 6
13 12 12 12 12 12 12 12 11 11 11 10 10 10 9 9 9 9 8 8 8 8 8 8 7 7 7 7 7 7 6 6 6 6 6 6 6 6 6 6 6 5 5
12 12 12 12 12 11 11 11 11 11 10 10 10 9 9 9 9 8 8 8 8 8 7 7 7 7 7 6 6 6 6 6 6 5 5 5 5 5 5 5 5 5 5
11 11 11 11 11 11 11 11 10 10 10 9 9 9 9 8 8 8 8 7 7 7 7 7 7 6 6 6 6 6 6 5 5 5 5 5 5 5 5 5 5 5 5
11 11 11 11 10 10 10 10 10 9 9 9 9 8 8 8 8 8 7 7 7 7 7 6 6 6 6 6 5 5 5 5 5 5 5 5 4 4 4 4 4 4 4
Wind_Speed
10 8 7 7 7 6 5 5 5 4 4 3 3 3 3 3 3 3 3 3 4 4 3 3 4 3 3 3 2 2 3 3 5 4 3 2 2 3 2 3 4 4 5
10 8 8 7 7 6 6 6 5 5 4 3 3 2 2 1 2 2 3 3 3 3 3 2 3 3 2 2 2 2 3 3 4 5 3 2 3 3 3 2 2 3 3
10 9 8 8 7 7 7 6 5 5 4 3 3 2 2 1 1 1 1 2 2 2 2 1 2 1 2 2 2 2 3 2 2 3 3 2 2 2 1 1 1 1 2
10 10 10 9 8 8 6 6 5 5 5 4 3 2 2 1 0 1 1 1 1 1 1 1 1 1 2 2 2 2 2 2 2 2 3 2 2 1 1 1 1 1 1
10 10 10 8 8 7 6 5 5 4 5 4 3 2 1 1 0 1 1 1 1 1 1 1 1 1 1 2 1 2 2 1 1 1 2 2 2 1 2 2 2 1 1
11 10 9 8 7 7 6 6 5 4 4 4 3 3 1 0 1 0 0 1 1 1 1 1 0 1 2 1 1 0 1 1 2 2 2 3 3 2 2 2 2 1 2
9 9 8 8 7 6 7 6 6 5 5 5 4 3 2 0 1 1 1 0 0 1 1 1 1 1 1 1 1 1 2 1 1 2 3 4 3 3 3 2 2 2 3
9 9 8 8 7 5 5 6 5 5 5 4 4 3 2 0 1 1 1 1 0 1 1 1 1 1 2 0 0 1 2 2 2 1 3 4 3 2 3 3 3 1 0
9 9 9 9 8 8 7 5 4 4 4 4 3 3 3 0 1 1 0 1 1 1 1 1 0 0 2 1 2 1 2 3 3 3 2 0 1 2 3 2 2 1 1
8 8 9 9 9 8 7 6 4 4 4 4 3 3 3 1 1 1 1 1 1 0 1 2 2 1 2 2 1 0 1 2 2 3 3 3 2 1 2 2 3 2 1
5 7 7 8 8 7 6 5 4 4 5 4 4 3 2 2 1 1 2 2 1 1 0 1 2 2 2 2 1 0 1 2 1 1 2 2 2 1 1 1 2 2 2
5 6 7 7 6 6 6 5 4 5 5 4 4 2 1 1 1 1 1 1 1 2 1 1 1 2 2 2 2 1 2 2 1 1 1 1 2 2 2 2 2 2 3
6 5 5 5 5 5 6 5 4 4 4 3 3 3 1 0 1 2 0 0 1 1 0 0 1 2 2 2 3 2 2 1 1 1 1 2 2 2 1 1 1 1 1
7 6 6 6 5 4 4 4 4 3 4 3 3 3 2 1 0 1 1 1 1 1 1 1 1 2 2 2 3 2 1 0 0 1 2 2 1 1 1 0 1 1 1
6 6 5 5 6 5 4 3 3 2 3 4 4 3 3 2 3 3 2 1 1 1 1 1 1 2 2 2 2 2 1 1 1 2 1 1 1 1 1 1 0 0 0
5 5 5 5 5 5 5 4 6 4 4 4 4 4 2 2 4 4 3 3 3 3 3 2 1 1 1 1 2 2 2 2 2 2 1 1 1 1 1 1 1 0 1
5 5 4 4 5 5 5 6 4 4 6 6 5 5 5 5 5 4 3 4 3 4 3 2 1 1 0 1 1 1 2 2 1 1 2 2 1 1 1 1 1 1 2
5 5 5 5 5 6 6 5 5 5 3 1 2 3 5 5 4 4 4 5 3 2 1 1 1 1 0 0 1 1 1 2 2 2 2 2 2 1 1 2 2 2 2
4 3 4 4 4 5 5 5 5 5 5 3 2 2 3 3 3 3 4 2 2 1 1 1 1 1 0 0 0 1 1 1 2 2 2 2 2 2 2 2 2 2 2
3 4 4 4 4 4 5 5 5 5 5 4 4 3 3 3 2 1 1 1 1 1 1 1 0 1 0 1 1 1 1 2 2 2 2 3 3 2 2 3 2 2 2
3 3 5 4 4 4 5 5 5 5 5 4 3 4 6 3 3 2 2 2 2 2 1 1 1 1 1 1 1 1 1 1 2 2 2 3 3 3 3 3 3 2 2
3 3 3 4 4 4 4 4 5 5 5 5 3 3 5 3 2 2 2 2 2 2 2 2 2 1 1 1 1 1 1 2 2 3 3 3 3 3 3 3 3 3 3
4 4 3 3 3 5 4 4 4 4 4 4 4 4 4 3 2 2 2 2 2 2 2 2 3 2 2 3 2 1 1 1 2 2 2 3 3 3 3 3 4 4 3
4 4 4 4 4 4 4 4 4 4 4 4 4 4 4 3 3 3 2 2 2 2 3 3 3 3 3 3 3 2 2 2 2 2 3 3 3 3 3 4 4 5 4
4 5 4 4 4 4 4 4 4 5 4 4 4 3 3 3 3 2 2 3 3 3 3 4 4 3 3 4 3 3 3 4 4 4 3 2 3 3 4 4 4 5 4
5 5 4 4 4 5 5 5 4 4 4 4 4 3 3 3 3 3 3 3 3 3 3 3 4 5 5 4 4 4 5 5 6 6 4 2 3 3 4 4 5 5 5
Wind_Direction
187 188 183 182 183 179 180 187 190 197 198 203 213 217 229 243 245 234 242 244 239 250 251 244 251 244 250 252 240 237 231 211 235 257 239 246 225 231 246 241 232 217 222
181 177 177 178 178 180 184 189 187 192 197 196 193 198 218 242 256 254 261 258 243 246 252 244 256 257 246 248 241 248 243 222 220 250 254 240 234 228 229 227 226 214 209
175 175 176 180 182 187 190 189 187 187 190 184 166 174 192 208 259 277 265 266 258 246 245 243 269 259 261 255 245 256 262 259 230 233 249 236 238 231 221 233 221 225 218
175 178 183 189 189 189 187 184 182 178 177 175 166 167 175 185 284 308 300 255 269 275 255 219 235 230 250 262 258 255 254 252 240 242 250 245 237 232 180 203 265 290 270
176 183 190 188 182 176 175 177 176 176 177 165 157 157 158 144 309 299 283 262 260 270 284 249 234 239 251 252 250 250 233 227 232 243 256 254 242 227 214 200 221 251 277
180 186 182 176 176 177 173 166 171 175 166 153 157 159 154 154 308 310 299 278 269 250 270 289 289 24 356 324 296 113 148 203 221 232 244 248 246 234 208 192 190 201 251
182 179 174 170 171 180 173 168 175 179 168 160 166 161 160 263 312 319 309 205 246 270 272 274 319 344 344 335 329 5 7 355 246 224 240 247 238 223 191 193 204 221 233
168 167 165 166 163 161 163 175 178 171 167 169 174 168 164 315 337 324 311 151 117 294 274 229 222 315 330 322 143 10 343 336 321 282 246 249 240 218 194 199 200 215 301
167 171 167 162 157 160 170 172 171 164 161 166 165 161 157 209 338 335 43 127 111 342 350 16 14 279 335 42 90 28 340 330 349 15 20 52 145 141 139 120 112 105 293
175 173 166 162 162 165 168 169 162 155 156 153 145 155 159 152 38 37 112 117 134 100 22 18 14 5 2 49 96 110 318 311 342 5 19 25 32 92 134 161 175 178 206
165 159 160 162 160 158 159 160 153 151 148 149 152 159 159 158 154 128 131 137 169 154 135 341 344 360 18 32 63 38 284 315 359 28 20 6 3 355 272 219 195 185 203
139 143 151 154 154 151 149 153 157 156 156 161 159 158 145 107 50 341 133 142 148 138 175 262 311 333 3 14 18 3 10 31 58 53 31 349 321 304 286 254 243 230 224
125 129 131 136 141 143 146 149 148 150 153 159 163 168 169 95 346 345 27 98 123 114 104 342 313 310 325 337 338 347 16 43 60 36 293 276 276 278 296 333 334 350 341
132 136 136 132 126 121 121 130 138 150 156 157 165 172 175 176 305 337 353 28 57 59 11 336 328 327 339 336 344 352 355 317 244 259 277 285 315 338 328 334 327 331 341
131 133 133 129 130 120 110 108 133 151 175 167 175 172 173 204 238 206 163 151 159 151 61 35 33 31 25 13 3 347 342 346 323 309 305 310 314 317 306 307 298 123 232
137 142 146 139 135 139 133 98 56 74 79 112 150 151 145 153 145 139 128 117 112 112 97 78 57 50 34 5 357 347 343 330 314 312 312 302 290 281 290 306 304 232 249
143 150 151 152 151 156 156 150 135 63 59 72 96 128 139 138 134 134 130 119 108 111 99 101 103 92 14 356 352 340 333 328 339 347 324 304 291 274 263 266 267 266 269
147 155 157 164 167 168 168 166 159 153 140 77 60 106 128 131 128 121 113 100 80 87 119 135 141 150 172 311 333 335 339 352 353 345 339 336 327 301 282 274 264 256 260
162 165 160 162 162 162 162 160 159 158 153 147 126 87 106 110 95 91 103 105 126 131 131 118 128 133 132 357 7 14 15 6 359 357 352 346 342 337 319 300 283 278 271
151 151 147 149 144 145 152 156 160 159 157 160 163 162 136 108 101 109 126 128 120 126 121 118 102 83 67 29 36 54 48 25 12 8 351 347 343 339 319 310 303 289 269
129 134 129 129 140 149 152 156 158 158 159 162 177 166 153 148 158 159 159 164 169 169 153 140 138 116 106 84 66 67 59 13 357 351 344 335 333 326 318 311 304 301 295
117 122 129 141 149 151 152 153 151 153 158 159 156 149 153 145 151 156 169 178 176 172 161 146 133 123 130 119 106 89 57 8 345 338 333 328 325 320 319 316 313 307 304
112 114 112 123 132 130 128 133 140 147 153 156 151 148 155 160 155 153 162 162 150 135 121 121 120 99 77 75 76 96 118 301 300 299 307 311 315 316 316 311 308 308 301
107 109 109 112 109 114 119 120 125 132 139 145 145 150 160 162 152 140 133 125 117 109 99 97 104 114 101 71 54 52 44 353 335 314 298 296 309 315 316 313 310 308 304
98 103 105 110 113 115 115 115 119 120 121 123 126 129 131 130 124 121 118 112 111 108 102 99 97 92 87 80 62 39 12 4 1 352 335 318 316 322 323 318 315 313 308
97 100 101 101 106 113 118 118 118 120 120 118 113 112 113 112 109 106 106 107 112 112 106 97 99 91 81 68 55 37 22 7 358 356 355 347 336 333 330 322 322 320 314
Height
1532 1534 1535 1536 1537 1538 1538 1538 1538 1539 1538 1538 1538 1538 1537 1537 1536 1535 1535 1534 1533 1533 1532 1531 1530 1530 1530 1529 1529 1528 1528 1528 1527 1526 1526 1527 1526 1526 1526 1526 1526 1525 1525
1530 1532 1533 1534 1535 1536 1536 1537 1537 1537 1536 1536 1536 1536 1535 1535 1534 1533 1532 1531 1530 1529 1528 1528 1527 1526 1525 1525 1525 1524 1524 1524 1524 1522 1522 1523 1522 1522 1522 1522 1521 1521 1521
1528 1530 1530 1531 1532 1533 1534 1534 1534 1534 1534 1534 1534 1534 1533 1533 1532 1531 1530 1529 1528 1527 1526 1525 1524 1523 1522 1521 1521 1520 1520 1520 1520 1519 1518 1519 1518 1518 1518 1517 1517 1517 1517
1525 1526 1527 1528 1529 1530 1531 1532 1532 1532 1532 1532 1532 1532 1531 1530 1530 1529 1528 1527 1526 1525 1524 1523 1521 1520 1519 1518 1517 1517 1516 1516 1516 1515 1515 1515 1514 1514 1514 1513 1513 1513 1513
1521 1523 1524 1525 1526 1527 1528 1529 1530 1530 1530 1530 1530 1530 1529 1528 1527 1527 1526 1525 1524 1523 1521 1520 1519 1518 1517 1516 1515 1514 1513 1513 1512 1511 1511 1511 1510 1510 1509 1509 1509 1509 1509
1518 1519 1521 1522 1524 1525 1525 1526 1527 1528 1528 1528 1528 1528 1527 1526 1526 1525 1524 1523 1522 1521 1519 1518 1517 1516 1514 1513 1512 1511 1510 1510 1509 1509 1508 1508 1507 1507 1506 1506 1505 1505 1505
1514 1515 1517 1519 1521 1522 1523 1523 1524 1524 1525 1525 1525 1525 1525 1525 1524 1523 1522 1521 1520 1519 1517 1516 1514 1513 1512 1511 1510 1509 1508 1507 1507 1507 1505 1504 1504 1503 1503 1502 1502 1502 1502
1509 1511 1512 1515 1517 1519 1519 1520 1521 1521 1522 1522 1523 1522 1523 1522 1521 1520 1520 1519 1517 1516 1515 1514 1512 1511 1510 1508 1507 1506 1505 1505 1504 1503 1502 1501 1501 1500 1500 1500 1499 1499 1499
1505 1507 1508 1511 1513 1515 1516 1517 1518 1519 1519 1519 1520 1520 1520 1519 1519 1518 1517 1516 1515 1514 1512 1511 1510 1509 1508 1506 1505 1504 1503 1502 1502 1501 1500 1499 1498 1497 1497 1497 1497 1496 1495
1501 1503 1505 1507 1509 1511 1513 1514 1515 1516 1516 1517 1517 1517 1517 1516 1516 1515 1515 1513 1512 1511 1510 1509 1508 1507 1506 1504 1503 1502 1501 1500 1500 1498 1498 1497 1496 1495 1495 1495 1494 1494 1493
1498 1500 1502 1503 1505 1507 1509 1510 1511 1513 1513 1514 1514 1515 1514 1513 1512 1512 1511 1510 1509 1508 1508 1507 1506 1505 1503 1502 1501 1500 1499 1499 1497 1496 1495 1494 1494 1493 1493 1493 1492 1492 1492
1494 1496 1498 1500 1502 1504 1506 1507 1508 1509 1510 1511 1511 1512 1512 1511 1510 1509 1509 1508 1507 1506 1505 1504 1504 1503 1502 1501 1500 1499 1498 1497 1495 1494 1493 1492 1492 1491 1491 1490 1490 1490 1489
1492 1493 1495 1498 1500 1501 1503 1504 1505 1506 1507 1507 1508 1509 1509 1509 1508 1507 1506 1505 1504 1503 1503 1502 1502 1501 1500 1499 1498 1497 1496 1495 1494 1493 1491 1491 1490 1489 1489 1488 1487 1487 1486
1489 1491 1493 1495 1496 1498 1499 1501 1503 1504 1504 1504 1505 1505 1506 1506 1505 1504 1503 1503 1502 1501 1501 1500 1500 1499 1498 1497 1496 1495 1494 1493 1492 1491 1490 1490 1489 1487 1486 1486 1485 1484 1484
1487 1489 1490 1493 1494 1496 1497 1499 1500 1501 1501 1501 1502 1503 1503 1502 1502 1502 1501 1500 1500 1499 1499 1498 1497 1497 1496 1495 1494 1493 1492 1491 1491 1490 1489 1488 1487 1485 1484 1483 1483 1482 1481
1485 1486 1488 1490 1492 1494 1496 1497 1497 1498 1498 1499 1500 1500 1500 1500 1499 1499 1498 1498 1497 1497 1497 1496 1495 1495 1494 1493 1493 1492 1491 1490 1489 1488 1487 1486 1485 1484 1483 1482 1481 1480 1479
1483 1485 1487 1489 1490 1491 1493 1494 1494 1494 1495 1496 1497 1497 1497 1497 1497 1496 1496 1496 1495 1495 1494 1493 1493 1493 1493 1492 1491 1490 1489 1489 1488 1487 1485 1484 1483 1482 1481 1480 1479 1478 1477
1481 1483 1484 1486 1487 1488 1489 1490 1491 1491 1492 1492 1493 1494 1494 1494 1494 1494 1494 1494 1493 1492 1492 1492 1492 1492 1491 1491 1490 1489 1488 1487 1486 1485 1484 1483 1481 1480 1479 1478 1477 1476 1475
1479 1480 1481 1483 1483 1484 1486 1487 1488 1489 1489 1490 1491 1491 1491 1492 1492 1492 1492 1492 1491 1491 1490 1490 1490 1490 1490 1489 1488 1487 1486 1486 1485 1483 1482 1481 1479 1478 1477 1476 1475 1474 1473
1476 1478 1479 1480 1481 1482 1483 1484 1485 1486 1487 1487 1488 1488 1488 1489 1489 1489 1490 1490 1489 1489 1489 1489 1489 1489 1488 1488 1487 1486 1485 1484 1483 1481 1480 1479 1478 1476 1475 1474 1472 1471 1470
1474 1475 1477 1477 1478 1479 1480 1481 1482 1483 1484 1485 1485 1485 1487 1487 1487 1487 1488 1488 1488 1488 1488 1487 1487 1487 1486 1486 1485 1484 1483 1482 1481 1479 1478 1477 1475 1474 1473 1471 1470 1469 1468
1472 1473 1474 1475 1476 1477 1478 1479 1480 1481 1482 1483 1483 1484 1485 1485 1486 1486 1486 1486 1486 1486 1486 1486 1485 1485 1484 1484 1483 1482 1480 1479 1478 1477 1476 1474 1473 1471 1470 1468 1467 1466 1465
1471 1472 1473 1474 1474 1475 1476 1477 1478 1479 1480 1480 1481 1482 1483 1483 1484 1484 1485 1485 1485 1485 1485 1484 1484 1483 1483 1482 1481 1480 1478 1477 1476 1475 1473 1472 1470 1469 1467 1466 1464 1463 1461
1471 1471 1471 1472 1473 1474 1475 1476 1477 1478 1478 1479 1479 1480 1481 1482 1482 1483 1483 1483 1483 1483 1483 1483 1482 1482 1481 1480 1479 1477 1476 1475 1473 1472 1471 1469 1467 1466 1464 1463 1461 1460 1458
1470 1470 1471 1472 1472 1473 1474 1475 1476 1476 1477 1477 1478 1479 1479 1480 1480 1481 1481 1481 1481 1482 1481 1481 1481 1480 1479 1478 1477 1475 1474 1472 1471 1469 1468 1466 1464 1463 1461 1460 1458 1457 1455
1470 1471 1472 1472 1472 1473 1474 1474 1475 1476 1477 1477 1478 1478 1478 1479 1479 1480 1480 1480 1480 1480 1480 1479 1479 1478 1477 1475 1474 1473 1471 1470 1468 1466 1465 1463 1462 1460 1458 1457 1455 1454 1452